{"data":{"norad_id":63896,"epoch":"2026-05-25T03:47:06.137952Z","epoch_age_seconds":71956,"freshness":"FRESH","line1":"1 63896U 25095G   26145.15770993  .00014745  00000+0  54404-3 0  9992","line2":"2 63896  42.9997 104.2733 0001074 255.1656 104.9077 15.27593001 59483","mean_motion":15.27593001,"eccentricity":0.0001074,"inclination_deg":42.9997,"raan_deg":104.2733,"arg_perigee_deg":255.1656,"mean_anomaly_deg":104.9077,"bstar":0.00054404,"rev_number":5948,"period_min":94.265946430583,"perigee_km":482.27327943897,"apogee_km":483.74705385037,"semimajor_km":6861.1471666447,"source":"CELESTRAK","updated_at":"2026-05-25T13:38:20.175874Z"}}